#datint,netname,site,siteID,timestamp,airt_abovecanopy_avg,airt_avg,airt_belowcanopy_avg,dpt_f,rh,soil_vwc,soil_f,Solar_rad,winds_mph_avg,windd_deg,winds_mph_max,leafwetns,tot_10rain_mm,tot_60rain_mm,tot_dayrain_mm,leaft_1,budt_1
10min,FGNet,alpine,42.04,27JAN2021:00:00:00,29.0,29.1,28.9,18.6,65,21.08,32.7506,0,6.7,144.6,10.7,0,0.00,0.00,0.01,28.1228,28.3784
10min,FGNet,alpine,42.04,27JAN2021:00:10:00,28.9,28.9,28.7,18.1,64,21.09,32.8316,0,4.7,144.5,7.3,0,0.00,0.00,0.00,27.4748,28.1822
10min,FGNet,alpine,42.04,27JAN2021:00:20:00,28.9,29.1,29.0,17.5,62,21.09,32.936,0,7.0,136.9,11.2,0,0.00,0.00,0.00,28.2812,28.6934
10min,FGNet,alpine,42.04,27JAN2021:00:30:00,28.9,29.0,28.8,17.3,61,21.09,32.7416,0,4.9,151.4,9.1,0,0.00,0.00,0.00,26.843,27.5828
10min,FGNet,alpine,42.04,27JAN2021:00:40:00,28.7,28.7,28.5,17.5,63,21.09,32.8424,0,3.1,141.5,7.1,0,0.00,0.00,0.00,27.779,28.1822
10min,FGNet,alpine,42.04,27JAN2021:00:50:00,28.8,29.0,28.9,17.9,63,21.09,32.738,0,5.2,157.8,9.1,0,0.00,0.00,0.00,28.301,28.4792
10min,FGNet,alpine,42.04,27JAN2021:01:00:00,28.8,28.8,28.7,18.4,65,21.1,33.0134,0,5.4,185.7,11.9,0,0.00,0.00,0.00,27.9464,28.1138
10min,FGNet,alpine,42.04,27JAN2021:01:10:00,28.4,28.5,28.4,19.1,68,21.09,32.5706,0,5.2,178.9,9.4,0,0.00,0.00,0.00,27.8888,27.9572
10min,FGNet,alpine,42.04,27JAN2021:01:20:00,28.3,28.4,28.3,19.3,69,21.1,32.9594,0,4.5,162.7,9.1,0,0.00,0.00,0.00,27.7304,27.9068
10min,FGNet,alpine,42.04,27JAN2021:01:30:00,28.0,28.1,28.0,19.5,70,21.1,33.0206,0,5.1,140.8,8.7,0,0.00,0.00,0.00,27.455,27.5828
10min,FGNet,alpine,42.04,27JAN2021:01:40:00,27.8,28.1,27.9,19.4,70,21.1,33.0134,0,4.1,142.7,8.9,0,0.00,0.00,0.00,27.6332,27.6818
10min,FGNet,alpine,42.04,27JAN2021:01:50:00,27.8,27.9,27.8,19.5,71,21.1,32.666,0,4.4,164.6,8.3,0,0.00,0.00,0.00,27.4442,27.5234
10min,FGNet,alpine,42.04,27JAN2021:02:00:00,27.8,28.1,28.0,18.7,68,21.11,32.765,0,5.7,144.4,8.7,0,0.00,0.00,0.00,27.3272,27.464
10min,FGNet,alpine,42.04,27JAN2021:02:10:00,28.1,28.3,28.2,18.1,66,21.12,32.9,0,5.4,152.5,10.5,0,0.00,0.00,0.00,27.6422,27.7214
10min,FGNet,alpine,42.04,27JAN2021:02:20:00,28.1,28.3,28.2,17.6,64,21.11,32.4554,0,5.4,147.3,9.9,0,0.00,0.00,0.00,27.6116,27.7304
10min,FGNet,alpine,42.04,27JAN2021:02:30:00,28.1,28.2,28.1,17.1,63,21.11,32.6264,0,4.4,150.1,10.1,0,0.00,0.00,0.00,27.2372,27.4046
10min,FGNet,alpine,42.04,27JAN2021:02:40:00,28.1,28.3,28.2,16.8,62,21.11,32.6624,0,4.9,143.7,10.7,0,0.00,0.00,0.00,27.9752,28.1336
10min,FGNet,alpine,42.04,27JAN2021:02:50:00,28.3,28.5,28.4,16.5,61,21.12,33.0494,0,6.1,151.1,11.6,0,0.00,0.00,0.00,27.8294,28.0562
10min,FGNet,alpine,42.04,27JAN2021:03:00:00,28.4,28.6,28.5,16.6,61,21.12,32.7776,0,6.3,140.1,10.1,0,0.00,0.00,0.00,28.0454,28.1336
10min,FGNet,alpine,42.04,27JAN2021:03:10:00,28.4,28.7,28.5,16.4,60,21.12,32.5166,0,5.7,121.6,9.1,0,0.00,0.00,0.00,28.0454,28.3604
10min,FGNet,alpine,42.04,27JAN2021:03:20:00,28.5,28.7,28.6,16.0,59,21.13,32.7344,0,5.3,129.8,8.3,0,0.00,0.00,0.00,27.6998,27.9176
10min,FGNet,alpine,42.04,27JAN2021:03:30:00,28.5,28.7,28.6,15.8,58,21.12,33.044,0,5.2,131.2,9.4,0,0.00,0.00,0.00,28.0652,28.1354
10min,FGNet,alpine,42.04,27JAN2021:03:40:00,28.6,28.7,28.6,15.8,58,21.12,32.5364,0,4.5,145.2,9.8,0,0.00,0.00,0.00,28.1048,28.3604
10min,FGNet,alpine,42.04,27JAN2021:03:50:00,28.6,28.7,28.6,15.6,58,21.13,32.72,0,5.6,134,9.9,0,0.00,0.00,0.00,27.8294,27.977
10min,FGNet,alpine,42.04,27JAN2021:04:00:00,28.5,28.6,28.5,15.5,58,21.14,32.7794,0,4.7,134.6,8.9,0,0.00,0.00,0.00,28.0454,28.2128
10min,FGNet,alpine,42.04,27JAN2021:04:10:00,28.5,28.7,28.6,15.4,57,21.14,32.8244,0,5.5,130,9.1,0,0.00,0.00,0.00,27.9878,28.4108
10min,FGNet,alpine,42.04,27JAN2021:04:20:00,28.7,28.8,28.7,15.3,57,21.13,32.6246,0,5.8,111.3,9.9,0,0.00,0.00,0.00,27.9968,28.3712
10min,FGNet,alpine,42.04,27JAN2021:04:30:00,28.7,28.9,28.7,15.5,57,21.13,32.5976,0,5.9,97,8.7,0,0.00,0.00,0.00,28.3604,28.625
10min,FGNet,alpine,42.04,27JAN2021:04:40:00,28.7,28.9,28.8,15.2,56,21.14,32.8784,0,5.1,106,8.3,0,0.00,0.00,0.00,27.4352,27.887
10min,FGNet,alpine,42.04,27JAN2021:04:50:00,28.7,28.9,28.7,14.8,55,21.14,32.495,0,4.6,152.4,10.1,0,0.00,0.00,0.00,28.1048,28.3316
10min,FGNet,alpine,42.04,27JAN2021:05:00:00,28.7,28.8,28.7,14.4,55,21.14,32.6786,0,5.1,142,10.1,0,0.00,0.00,0.00,26.8448,27.4658
10min,FGNet,alpine,42.04,27JAN2021:05:10:00,28.4,28.2,28.0,14.5,55,21.14,32.9414,0,3.0,126.9,5.1,0,0.00,0.00,0.00,24.9872,26.7278
10min,FGNet,alpine,42.04,27JAN2021:05:20:00,28.3,28.3,28.0,14.3,55,21.14,32.711,0,3.4,118.6,6.9,0,0.00,0.00,0.00,26.0744,27.1886
10min,FGNet,alpine,42.04,27JAN2021:05:30:00,27.9,27.7,27.4,14.6,57,21.14,33.0674,0,2.8,80.7,3.9,0,0.00,0.00,0.00,25.7468,26.5676
10min,FGNet,alpine,42.04,27JAN2021:05:40:00,28.0,28.1,27.8,14.4,56,21.15,32.7074,0,2.9,90.8,6.0,0,0.00,0.00,0.00,26.6072,27.5432
10min,FGNet,alpine,42.04,27JAN2021:05:50:00,28.4,28.3,28.0,14.1,55,21.15,32.531,0,1.9,131.6,3.1,0,0.00,0.00,0.00,25.3616,27.2768
10min,FGNet,alpine,42.04,27JAN2021:06:00:00,28.4,28.3,27.9,13.9,54,21.14,32.9036,0,2.7,187.4,6.5,0,0.00,0.00,0.00,26.5082,27.1094
10min,FGNet,alpine,42.04,27JAN2021:06:10:00,28.2,27.8,27.4,14.2,55,21.15,32.819,0,2.9,268.8,6.0,0,0.00,0.00,0.00,24.7658,26.321
10min,FGNet,alpine,42.04,27JAN2021:06:20:00,27.3,26.5,26.1,14.6,58,21.15,32.936,0,2.2,242.1,4.0,0,0.00,0.00,0.00,24.4292,25.6892
10min,FGNet,alpine,42.04,27JAN2021:06:30:00,26.8,26.2,25.8,15.1,61,21.15,32.9936,0,3.1,64.65,6.5,0,0.00,0.00,0.00,24.701,25.5128
10min,FGNet,alpine,42.04,27JAN2021:06:40:00,26.7,26.6,26.1,14.8,60,21.15,32.8226,0,2.5,124.6,4.0,0,0.00,0.00,0.00,24.0368,25.6442
10min,FGNet,alpine,42.04,27JAN2021:06:50:00,27.5,27.4,26.8,13.7,56,21.16,33.1286,0,3.3,133.7,9.8,0,0.00,0.00,0.00,25.6658,26.645
10min,FGNet,alpine,42.04,27JAN2021:07:00:00,28.7,29.0,28.7,12.9,51,21.16,32.9414,0,4.9,106.7,8.9,0,0.00,0.00,0.00,26.9798,28.5458
10min,FGNet,alpine,42.04,27JAN2021:07:10:00,29.3,29.3,29.1,12.8,50,21.16,33.2366,0,5.0,118.6,8.2,0,0.00,0.00,0.00,26.8322,27.6908
10min,FGNet,alpine,42.04,27JAN2021:07:20:00,29.3,29.2,29.0,12.7,49,21.17,32.8406,0,4.3,143.6,6.7,0,0.00,0.00,0.00,27.7988,28.4774
10min,FGNet,alpine,42.04,27JAN2021:07:30:00,29.0,28.6,28.4,13.0,51,21.17,32.8244,1,2.4,126.5,4.2,0,0.00,0.00,0.00,26.942,28.1624
10min,FGNet,alpine,42.04,27JAN2021:07:40:00,29.2,29.3,28.9,12.6,49,21.16,32.9396,5,4.2,139.8,7.8,0,0.00,0.00,0.00,28.436,28.9652
10min,FGNet,alpine,42.04,27JAN2021:07:50:00,29.4,29.3,29.0,12.4,49,21.17,32.8766,8,3.5,153.6,6.4,0,0.00,0.00,0.00,27.9626,28.9076
10min,FGNet,alpine,42.04,27JAN2021:08:00:00,29.5,29.6,29.4,12.0,48,21.16,32.9144,11,4.8,141,8.9,0,0.00,0.00,0.00,28.5098,28.8446
10min,FGNet,alpine,42.04,27JAN2021:08:10:00,29.3,29.2,29.0,12.3,48,21.17,32.981,24,3.6,180.5,6.4,0,0.00,0.00,0.00,29.3828,29.5682
10min,FGNet,alpine,42.04,27JAN2021:08:20:00,29.4,29.5,29.3,12.0,48,21.18,32.6354,39,4.9,164.4,9.2,0,0.00,0.00,0.00,29.6366,28.7348
10min,FGNet,alpine,42.04,27JAN2021:08:30:00,28.8,28.4,28.0,13.1,51,21.18,32.8604,56,1.9,234.7,3.9,0,0.00,0.00,0.00,30.1658,28.409
10min,FGNet,alpine,42.04,27JAN2021:08:40:00,28.2,28.1,27.7,13.9,54,21.17,32.8604,80,4.5,235.4,10.7,0,0.00,0.00,0.00,30.1658,28.5368
10min,FGNet,alpine,42.04,27JAN2021:08:50:00,27.2,27.4,27.2,14.2,58,21.18,32.8964,96,6.7,195.2,10.7,0,0.00,0.00,0.00,30.1064,28.742
10min,FGNet,alpine,42.04,27JAN2021:09:00:00,27.7,28.3,28.0,14.0,56,21.19,32.765,105,3.2,158.6,5.8,0,0.00,0.00,0.00,34.9448,31.7912
10min,FGNet,alpine,42.04,27JAN2021:09:10:00,28.8,29.4,29.0,13.9,53,21.19,33.0476,145,1.8,119,3.1,0,0.00,0.00,0.00,39.3512,33.3896
10min,FGNet,alpine,42.04,27JAN2021:09:20:00,29.7,30.3,30.0,14.3,52,21.19,33.053,183,1.4,88.8,3.3,0,0.00,0.00,0.00,41.738,37.0562
10min,FGNet,alpine,42.04,27JAN2021:09:30:00,30.0,30.2,30.0,14.1,51,21.19,32.9306,217,3.0,202.6,6.4,0,0.00,0.00,0.00,41.0414,35.3876
10min,FGNet,alpine,42.04,27JAN2021:09:40:00,29.8,30.0,29.7,13.9,51,21.19,33.2456,196,3.8,189.9,6.2,0,0.00,0.00,0.00,38.3144,33.4076
10min,FGNet,alpine,42.04,27JAN2021:09:50:00,29.9,30.1,29.8,14.1,51,21.2,32.7056,140,2.7,213.9,4.2,0,0.00,0.00,0.00,38.7374,33.6614
10min,FGNet,alpine,42.04,27JAN2021:10:00:00,29.6,29.9,29.7,14.9,54,21.19,33.089,161,2.4,291.4,3.5,0,0.00,0.00,0.00,39.8102,32.9738
10min,FGNet,alpine,42.04,27JAN2021:10:10:00,30.1,30.8,30.4,14.2,51,21.2,33.0296,177,2.0,270.1,4.2,0,0.00,0.00,0.00,39.9686,35.5802
10min,FGNet,alpine,42.04,27JAN2021:10:20:00,30.5,30.7,30.5,15.3,53,21.19,33.1466,184,6.6,149.8,13.7,0,0.00,0.00,0.00,35.8394,33.0674
10min,FGNet,alpine,42.04,27JAN2021:10:30:00,30.3,30.7,30.5,15.8,54,21.19,33.1124,178,6.0,173.2,11.7,0,0.00,0.00,0.00,35.4938,32.3798
10min,FGNet,alpine,42.04,27JAN2021:10:40:00,30.1,30.4,30.1,16.1,55,21.2,33.1556,193,6.0,176.3,11.0,0,0.00,0.00,0.00,35.6702,32.9486
10min,FGNet,alpine,42.04,27JAN2021:10:50:00,29.6,29.7,29.5,16.5,58,21.2,33.1574,224,7.1,180.6,11.2,0,0.00,0.00,0.00,36.3686,32.7938
10min,FGNet,alpine,42.04,27JAN2021:11:00:00,28.7,29.0,28.7,18.5,65,21.2,33.2474,255,7.0,194.4,14.2,0,0.00,0.00,0.00,37.1912,32.909
10min,FGNet,alpine,42.04,27JAN2021:11:10:00,28.5,28.9,28.6,19.4,68,21.2,33.323,252,6.0,212.5,10.8,0,0.00,0.00,0.00,38.066,32.918
10min,FGNet,alpine,42.04,27JAN2021:11:20:00,28.4,29.0,28.7,20.9,73,21.2,33.1484,334,5.1,190,10.8,0,0.00,0.00,0.00,51.746,40.3664
10min,FGNet,alpine,42.04,27JAN2021:11:30:00,28.9,29.5,29.1,21.3,73,21.21,33.2204,354,3.1,162.9,6.7,0,0.00,0.00,0.00,49.424,36.5432
10min,FGNet,alpine,42.04,27JAN2021:11:40:00,29.0,29.2,28.8,21.1,72,21.2,33.1556,233,2.2,190.1,4.6,0,0.00,0.00,0.00,40.7804,32.8874
10min,FGNet,alpine,42.04,27JAN2021:11:50:00,29.0,29.0,29.0,20.9,71,21.2,33.143,164,2.1,165,3.3,0,0.00,0.00,0.00,36.1112,30.911
10min,FGNet,alpine,42.04,27JAN2021:12:00:00,28.6,28.8,28.6,20.1,70,21.21,33.2654,163,2.4,155.3,4.8,0,0.00,0.00,0.00,41.6138,33.9836
10min,FGNet,alpine,42.04,27JAN2021:12:10:00,28.9,29.5,29.2,19.5,67,21.21,32.9774,214,2.3,114.1,5.1,0,0.00,0.00,0.00,43.2482,34.601
10min,FGNet,alpine,42.04,27JAN2021:12:20:00,29.3,29.4,29.2,19.2,65,21.21,32.936,212,2.6,103.9,3.7,0,0.00,0.00,0.00,40.7408,34.6604
10min,FGNet,alpine,42.04,27JAN2021:12:30:00,29.6,30.0,29.8,18.9,64,21.21,33.2726,189,1.6,109.9,4.6,0,0.00,0.00,0.00,44.5424,35.2778
10min,FGNet,alpine,42.04,27JAN2021:12:40:00,30.2,30.7,30.4,18.7,62,21.22,32.873,249,1.4,127.3,3.0,0,0.00,0.00,0.00,46.526,35.5118
10min,FGNet,alpine,42.04,27JAN2021:12:50:00,30.7,31.0,30.7,18.3,60,21.22,33.107,197,2.1,121.7,4.6,0,0.00,0.00,0.00,40.6526,33.9836
10min,FGNet,alpine,42.04,27JAN2021:13:00:00,30.4,30.7,30.7,17.8,59,21.22,33.26,190,4.7,38.88,8.3,0,0.00,0.00,0.00,43.3292,36.0716
10min,FGNet,alpine,42.04,27JAN2021:13:10:00,30.6,31.0,30.9,18.1,59,21.23,33.206,175,3.2,119.9,5.5,0,0.00,0.00,0.00,39.3962,33.926
10min,FGNet,alpine,42.04,27JAN2021:13:20:00,31.0,31.6,31.5,18.2,59,21.23,32.8694,188,3.4,69.35,5.5,0,0.00,0.00,0.00,40.1072,34.1114
10min,FGNet,alpine,42.04,27JAN2021:13:30:00,31.4,31.6,31.4,19.1,60,21.24,33.143,172,4.2,165.7,8.2,0,0.00,0.00,0.00,38.0066,34.4156
10min,FGNet,alpine,42.04,27JAN2021:13:40:00,31.2,31.5,31.2,20.0,63,21.23,32.918,167,4.6,199.7,8.5,0,0.00,0.00,0.00,38.5574,35.2094
10min,FGNet,alpine,42.04,27JAN2021:13:50:00,31.1,31.5,31.2,20.7,65,21.23,32.9486,178,4.8,192.5,8.5,0,0.00,0.00,0.00,37.9958,34.5128
10min,FGNet,alpine,42.04,27JAN2021:14:00:00,30.5,30.7,30.5,21.8,70,21.24,33.107,192,5.0,171.1,8.0,0,0.00,0.00,0.00,38.903,34.5326
10min,FGNet,alpine,42.04,27JAN2021:14:10:00,30.3,30.5,30.3,22.3,72,21.24,32.8334,188,6.2,190.5,9.6,0,0.00,0.00,0.00,35.8952,32.603
10min,FGNet,alpine,42.04,27JAN2021:14:20:00,29.8,30.1,29.9,22.3,73,21.24,32.9414,176,6.1,181.6,9.8,0,0.00,0.00,0.00,37.1606,32.927
10min,FGNet,alpine,42.04,27JAN2021:14:30:00,29.8,30.3,30.1,22.4,73,21.24,32.9846,182,4.0,173.9,6.5,0,0.00,0.00,0.00,38.5682,34.1402
10min,FGNet,alpine,42.04,27JAN2021:14:40:00,30.1,30.4,30.2,22.8,74,21.25,33.1394,185,4.9,192.1,7.3,0,0.00,0.00,0.00,38.3216,34.1024
10min,FGNet,alpine,42.04,27JAN2021:14:50:00,30.0,30.2,30.0,23.2,76,21.25,32.9414,151,5.1,186,8.9,0,0.00,0.00,0.00,37.1912,33.9638
10min,FGNet,alpine,42.04,27JAN2021:15:00:00,30.2,30.6,30.4,23.5,76,21.25,33.332,177,3.3,176.2,5.1,0,0.00,0.00,0.00,42.0422,37.22
10min,FGNet,alpine,42.04,27JAN2021:15:10:00,31.0,31.6,31.2,23.7,74,21.25,33.1466,196,1.0,224.5,3.1,0,0.00,0.00,0.00,43.7288,35.7476
10min,FGNet,alpine,42.04,27JAN2021:15:20:00,31.1,31.3,31.1,23.7,74,21.25,33.269,140,1.4,252.8,2.4,0,0.00,0.00,0.00,40.3754,35.3948
10min,FGNet,alpine,42.04,27JAN2021:15:30:00,31.2,31.5,31.3,24.0,74,21.25,32.9216,131,1.2,173.6,3.9,0,0.00,0.00,0.00,39.3368,33.818
10min,FGNet,alpine,42.04,27JAN2021:15:40:00,31.6,31.7,31.5,24.1,73,21.26,33.1484,121,1.6,206.1,3.0,0,0.00,0.00,0.00,38.8346,35.0708
10min,FGNet,alpine,42.04,27JAN2021:15:50:00,31.5,31.7,31.5,23.9,73,21.25,33.2276,122,3.8,156.8,6.5,0,0.00,0.00,0.00,36.5612,33.3572
10min,FGNet,alpine,42.04,27JAN2021:16:00:00,31.4,31.7,31.6,23.8,73,21.25,33.1916,142,4.3,120.6,7.1,0,0.00,0.00,0.00,36.1994,33.26
10min,FGNet,alpine,42.04,27JAN2021:16:10:00,31.5,31.7,31.6,24.2,74,21.25,33.2024,129,4.5,160.7,6.9,0,0.00,0.00,0.00,38.075,34.709
10min,FGNet,alpine,42.04,27JAN2021:16:20:00,31.5,31.8,31.6,24.6,75,21.25,33.2006,107,2.8,197.2,4.6,0,0.00,0.00,0.00,36.9248,33.1322
10min,FGNet,alpine,42.04,27JAN2021:16:30:00,31.5,31.7,31.6,24.8,76,21.26,33.3266,84,1.9,232.6,3.0,0,0.00,0.00,0.00,35.474,32.4284
10min,FGNet,alpine,42.04,27JAN2021:16:40:00,31.4,31.6,31.5,25.0,77,21.26,32.9306,66,2.6,197,4.8,0,0.00,0.00,0.00,34.0916,32.4374
10min,FGNet,alpine,42.04,27JAN2021:16:50:00,31.3,31.4,31.3,25.2,78,21.26,33.2834,40,3.3,210.7,4.6,0,0.00,0.00,0.00,32.3294,31.3808
10min,FGNet,alpine,42.04,27JAN2021:17:00:00,31.1,31.2,31.2,25.0,78,21.26,33.2636,22,2.2,213.2,4.4,0,0.00,0.00,0.00,31.5068,31.136
10min,FGNet,alpine,42.04,27JAN2021:17:10:00,31.1,31.2,31.1,24.9,77,21.26,33.107,15,0.9,180.2,2.6,0,0.00,0.00,0.00,31.0568,30.9596
10min,FGNet,alpine,42.04,27JAN2021:17:20:00,31.1,31.2,31.1,24.7,77,21.26,33.2906,10,2.1,224.4,3.3,0,0.00,0.00,0.00,30.7436,30.7724
10min,FGNet,alpine,42.04,27JAN2021:17:30:00,31.1,31.1,31.0,24.6,76,21.26,32.963,7,0.3,211.7,1.9,0,0.00,0.00,0.00,30.1748,30.3998
10min,FGNet,alpine,42.04,27JAN2021:17:40:00,31.1,31.0,30.9,24.6,77,21.27,33.0494,4,1.1,68.38,3.9,0,0.00,0.00,0.00,29.9192,30.3422
10min,FGNet,alpine,42.04,27JAN2021:17:50:00,31.0,30.9,30.8,24.8,78,21.27,33.161,2,0.5,125,1.9,0,0.00,0.00,0.00,29.9696,30.4304
10min,FGNet,alpine,42.04,27JAN2021:18:00:00,31.0,30.9,30.8,24.8,78,21.27,33.233,0,1.7,135.5,3.0,0,0.00,0.00,0.00,30.155,30.5564
10min,FGNet,alpine,42.04,27JAN2021:18:10:00,31.0,31.2,31.0,24.9,78,21.27,33.26,0,3.7,100.7,6.2,0,0.00,0.00,0.00,30.596,30.8318
10min,FGNet,alpine,42.04,27JAN2021:18:20:00,31.1,31.2,31.1,24.8,77,21.27,33.2006,0,2.8,175.2,6.0,0,0.00,0.00,0.00,30.2828,30.6464
10min,FGNet,alpine,42.04,27JAN2021:18:30:00,31.4,31.6,31.4,24.3,75,21.28,33.2024,0,3.2,90.5,4.6,0,0.00,0.00,0.00,31.0568,31.478
10min,FGNet,alpine,42.04,27JAN2021:18:40:00,31.8,31.8,31.7,24.0,73,21.28,33.2744,0,2.7,57.95,4.2,0,0.00,0.00,0.00,30.5294,31.0082
10min,FGNet,alpine,42.04,27JAN2021:18:50:00,31.8,31.8,31.6,23.8,72,21.28,33.2726,0,2.7,264.3,3.9,0,0.00,0.00,0.00,30.5672,30.8912
10min,FGNet,alpine,42.04,27JAN2021:19:00:00,31.7,31.7,31.6,23.9,73,21.28,33.233,0,2.0,141.7,3.3,0,0.00,0.00,0.00,30.6482,31.1288
10min,FGNet,alpine,42.04,27JAN2021:19:10:00,31.6,31.6,31.5,24.0,73,21.29,33.314,0,2.8,45.8,4.2,0,0.00,0.00,0.00,30.8642,31.2458
10min,FGNet,alpine,42.04,27JAN2021:19:20:00,31.6,31.7,31.6,23.8,73,21.29,33.4184,0,2.6,235.7,4.8,0,0.00,0.00,0.00,30.6482,31.0694
10min,FGNet,alpine,42.04,27JAN2021:19:30:00,31.7,31.8,31.6,23.8,72,21.29,33.188,0,3.1,248.4,4.8,0,0.00,0.00,0.00,31.136,31.5374
10min,FGNet,alpine,42.04,27JAN2021:19:40:00,31.8,31.7,31.6,23.8,72,21.3,33.098,0,2.8,80.8,5.3,0,0.00,0.00,0.00,30.9326,31.334
10min,FGNet,alpine,42.04,27JAN2021:19:50:00,31.9,32.1,31.9,23.6,71,21.3,33.1844,0,2.5,272.5,4.8,0,0.00,0.00,0.00,31.1972,31.6958
10min,FGNet,alpine,42.04,27JAN2021:20:00:00,32.2,32.1,31.8,23.5,70,21.3,33.3356,0,2.5,221.2,4.6,0,0.00,0.00,0.00,30.875,31.4132
10min,FGNet,alpine,42.04,27JAN2021:20:10:00,31.9,31.8,31.7,23.8,72,21.3,32.9936,0,2.8,121,3.9,0,0.00,0.00,0.00,30.9524,31.1972
10min,FGNet,alpine,42.04,27JAN2021:20:20:00,31.9,31.9,31.7,23.7,71,21.3,33.2294,0,2.6,71.87,4.2,0,0.00,0.00,0.00,31.1864,31.5284
10min,FGNet,alpine,42.04,27JAN2021:20:30:00,32.0,31.9,31.6,23.7,71,21.3,33.107,0,2.7,210.9,5.7,0,0.00,0.00,0.00,31.2854,31.676
10min,FGNet,alpine,42.04,27JAN2021:20:40:00,31.9,32.0,31.8,23.8,72,21.3,33.1376,0,2.8,194,7.1,0,0.00,0.00,0.00,31.1468,31.3808
10min,FGNet,alpine,42.04,27JAN2021:20:50:00,32.0,32.0,31.7,23.9,72,21.3,33.2546,0,2.1,107,4.8,0,0.00,0.00,0.00,31.4024,31.6274
10min,FGNet,alpine,42.04,27JAN2021:21:00:00,32.0,32.0,31.9,24.1,72,21.3,32.756,0,2.1,96.5,3.1,0,0.00,0.00,0.00,31.3718,31.5284
10min,FGNet,alpine,42.04,27JAN2021:21:10:00,32.2,32.3,32.1,23.8,71,21.3,33.1034,0,2.4,199.9,4.0,0,0.00,0.00,0.00,31.4798,31.8614
10min,FGNet,alpine,42.04,27JAN2021:21:20:00,32.5,32.6,32.4,23.7,69,21.31,32.972,0,3.3,137.9,6.5,0,0.00,0.00,0.00,31.919,32.1836
10min,FGNet,alpine,42.04,27JAN2021:21:30:00,32.3,32.3,32.2,24.5,73,21.3,33.017,0,3.9,113,5.7,0,0.00,0.00,0.00,31.2242,31.4888
10min,FGNet,alpine,42.04,27JAN2021:21:40:00,31.8,31.8,31.7,25.2,76,21.31,33.062,0,2.4,171.5,3.9,0,0.00,0.00,0.00,30.3998,31.0478
10min,FGNet,alpine,42.04,27JAN2021:21:50:00,31.5,31.5,31.4,25.7,79,21.32,32.981,0,1.5,208.9,4.6,0,0.00,0.00,0.00,30.362,31.0874
10min,FGNet,alpine,42.04,27JAN2021:22:00:00,31.4,31.4,31.3,26.1,81,21.32,33.0386,0,1.2,138.2,3.3,0,0.00,0.00,0.00,30.038,30.5672
10min,FGNet,alpine,42.04,27JAN2021:22:10:00,31.2,31.1,30.9,26.4,82,21.32,33.2096,0,1.0,185.6,5.3,0,0.00,0.00,0.00,30.353,30.9704
10min,FGNet,alpine,42.04,27JAN2021:22:20:00,31.2,31.3,31.2,27.0,84,21.32,33.0386,0,3.2,132.4,5.5,0,0.00,0.00,0.00,30.4898,30.9794
10min,FGNet,alpine,42.04,27JAN2021:22:30:00,31.2,31.3,31.2,27.1,85,21.33,32.9756,0,2.2,131.9,4.0,0,0.00,0.00,0.00,30.3818,30.929
10min,FGNet,alpine,42.04,27JAN2021:22:40:00,31.3,31.4,31.2,27.1,84,21.33,33.044,0,3.0,197.8,5.7,0,0.00,0.00,0.00,30.6068,31.0676
10min,FGNet,alpine,42.04,27JAN2021:22:50:00,31.5,31.7,31.7,24.5,75,21.33,32.9756,0,4.8,215.9,10.8,0,0.00,0.00,0.00,30.4592,31.577
10min,FGNet,alpine,42.04,27JAN2021:23:00:00,31.8,31.9,31.8,24.4,74,21.33,33.089,0,2.4,139.5,4.0,0,0.00,0.00,0.00,30.6572,31.3232
10min,FGNet,alpine,42.04,27JAN2021:23:10:00,31.8,32.0,31.9,26.2,80,21.34,32.8064,0,4.7,113,7.8,0,0.00,0.00,0.00,31.0766,31.7336
10min,FGNet,alpine,42.04,27JAN2021:23:20:00,32.0,32.2,32.1,26.5,80,21.34,33.197,0,3.4,84.1,6.5,0,0.00,0.00,0.00,31.1648,32.0648
10min,FGNet,alpine,42.04,27JAN2021:23:30:00,32.4,32.7,32.5,25.6,76,21.34,32.9414,0,0.9,185.3,4.9,0,0.00,0.00,0.00,30.9596,31.9874
10min,FGNet,alpine,42.04,27JAN2021:23:40:00,32.4,32.3,32.0,25.7,76,21.34,32.9936,0,2.6,282.3,3.9,0,0.00,0.00,0.00,31.037,31.811
10min,FGNet,alpine,42.04,27JAN2021:23:50:00,32.1,32.1,32.0,25.6,77,21.34,32.9486,0,3.6,130.1,6.0,0,0.00,0.00,0.00,31.0658,31.8506
10min,FGNet,genola,42.05,27JAN2021:00:00:00,28.4,28.5,28.3,19.2,68,9.18,36.4712,0,4.5,104,6.7,0,0.00,0.00,0.00,26.2022,27.4118
10min,FGNet,genola,42.05,27JAN2021:00:10:00,28.3,28.7,28.6,18.9,67,9.24,36.473,0,5.8,126.9,10.3,0,0.00,0.00,0.00,27.1364,27.8888
10min,FGNet,genola,42.05,27JAN2021:00:20:00,28.2,28.4,28.2,18.9,68,9.19,36.4694,0,5.7,135.5,10.7,0,0.00,0.00,0.00,26.8304,27.6422
10min,FGNet,genola,42.05,27JAN2021:00:30:00,28.2,28.5,28.4,18.7,67,9.12,36.3812,0,6.6,121.4,12.1,0,0.00,0.00,0.00,27.4532,27.9968
10min,FGNet,genola,42.05,27JAN2021:00:40:00,28.1,28.3,28.2,18.6,67,9.24,36.446,0,7.4,120.1,11.2,0,0.00,0.00,0.00,27.5738,27.968
10min,FGNet,genola,42.05,27JAN2021:00:50:00,27.8,27.9,27.8,18.6,68,9.25,36.4406,0,7.4,111.8,12.5,0,0.00,0.00,0.00,26.204,27.0158
10min,FGNet,genola,42.05,27JAN2021:01:00:00,27.5,27.8,27.6,18.5,69,9.25,36.4316,0,6.9,103.9,9.1,0,0.00,0.00,0.00,25.4282,26.9168
10min,FGNet,genola,42.05,27JAN2021:01:10:00,27.1,27.0,26.8,18.1,69,9.24,36.428,0,7.9,116.1,10.8,0,0.00,0.00,0.00,24.7514,25.8278
10min,FGNet,genola,42.05,27JAN2021:01:20:00,25.9,26.0,25.8,17.9,71,9.28,36.428,0,8.5,115.5,10.3,0,0.00,0.00,0.00,23.8946,25.1726
10min,FGNet,genola,42.05,27JAN2021:01:30:00,25.6,25.8,25.7,17.8,72,9.23,36.428,0,8.8,122.6,11.0,0,0.00,0.00,0.00,23.837,25.115
10min,FGNet,genola,42.05,27JAN2021:01:40:00,25.6,25.8,25.6,17.7,72,9.2,36.4262,0,8.3,125.7,10.8,0,0.00,0.00,0.00,24.6002,25.6766
10min,FGNet,genola,42.05,27JAN2021:01:50:00,26.1,26.4,26.2,17.6,70,9.05,36.3506,0,9.8,125.1,12.1,0,0.00,0.00,0.00,24.4526,25.6388
10min,FGNet,genola,42.05,27JAN2021:02:00:00,25.9,26.0,25.8,17.3,70,9.03,36.3326,0,9.4,122.6,11.9,0,0.00,0.00,0.00,23.882,25.1996
10min,FGNet,genola,42.05,27JAN2021:02:10:00,25.7,25.9,25.6,17.0,69,9.06,36.3128,0,9.0,118.8,10.8,0,0.00,0.00,0.00,24.0836,25.2806
10min,FGNet,genola,42.05,27JAN2021:02:20:00,25.7,25.9,25.6,16.9,69,9.23,36.3758,0,9.4,116.7,11.2,0,0.00,0.00,0.00,24.2636,25.4408
10min,FGNet,genola,42.05,27JAN2021:02:30:00,26.0,26.2,26.0,16.7,67,8.86,36.2282,0,9.4,118.6,11.9,0,0.00,0.00,0.00,24.3626,25.5596
10min,FGNet,genola,42.05,27JAN2021:02:40:00,25.9,26.1,25.8,16.7,68,9.17,36.3704,0,8.9,128.9,12.3,0,0.00,0.00,0.00,23.3636,24.9224
10min,FGNet,genola,42.05,27JAN2021:02:50:00,25.7,25.9,25.6,16.6,68,9.23,36.3578,0,7.9,134.4,9.9,0,0.00,0.00,0.00,23.5832,24.962
10min,FGNet,genola,42.05,27JAN2021:03:00:00,25.7,25.9,25.5,16.3,67,9.23,36.3452,0,9.1,119.6,11.9,0,0.00,0.00,0.00,23.684,25.0412
10min,FGNet,genola,42.05,27JAN2021:03:10:00,25.4,25.5,25.2,16.1,67,9.19,36.338,0,8.2,132.6,11.7,0,0.00,0.00,0.00,23.0018,24.3032
10min,FGNet,genola,42.05,27JAN2021:03:20:00,24.8,24.9,24.6,15.9,69,9.18,36.3344,0,7.8,118.1,9.4,0,0.00,0.00,0.00,23.0018,24.4436
10min,FGNet,genola,42.05,27JAN2021:03:30:00,25.4,25.6,25.2,15.5,66,9.23,36.3128,0,7.2,121.6,10.1,0,0.00,0.00,0.00,22.64,24.5624
10min,FGNet,genola,42.05,27JAN2021:03:40:00,25.9,26.1,25.7,15.2,63,9.19,36.2912,0,8.9,125.9,12.1,0,0.00,0.00,0.00,23.3042,24.674
10min,FGNet,genola,42.05,27JAN2021:03:50:00,24.8,24.5,24.2,15.1,66,9.17,36.284,0,7.2,114,9.4,0,0.00,0.00,0.00,22.3628,23.8874
10min,FGNet,genola,42.05,27JAN2021:04:00:00,24.8,24.9,24.5,14.8,65,9.22,36.284,0,8.0,116.9,10.5,0,0.00,0.00,0.00,23.009,24.4904
10min,FGNet,genola,42.05,27JAN2021:04:10:00,25.0,25.2,24.9,14.7,64,9.27,36.2642,0,8.9,115.9,10.7,0,0.00,0.00,0.00,23.171,24.5318
10min,FGNet,genola,42.05,27JAN2021:04:20:00,25.2,25.3,25.0,14.6,64,9.21,36.248,0,10.0,115.6,11.6,0,0.00,0.00,0.00,23.7326,24.7712
10min,FGNet,genola,42.05,27JAN2021:04:30:00,25.0,25.2,24.9,14.4,63,9.19,36.2462,0,8.8,116.8,11.0,0,0.00,0.00,0.00,23.3726,24.6524
10min,FGNet,genola,42.05,27JAN2021:04:40:00,25.3,25.4,25.0,14.3,62,9.24,36.2228,0,8.6,115.4,11.6,0,0.00,0.00,0.00,23.171,24.5336
10min,FGNet,genola,42.05,27JAN2021:04:50:00,25.0,25.0,24.7,14.1,63,9.24,36.1976,0,8.8,114.8,10.8,0,0.00,0.00,0.00,23.252,24.3734
10min,FGNet,genola,42.05,27JAN2021:05:00:00,24.3,24.3,24.1,14.2,65,9.31,36.1868,0,9.5,117,13.0,0,0.00,0.00,0.00,22.568,23.432
10min,FGNet,genola,42.05,27JAN2021:05:10:00,23.9,24.2,24.0,14.1,66,9.16,36.1688,0,8.8,125.6,11.6,0,0.00,0.00,0.00,22.2458,23.432
10min,FGNet,genola,42.05,27JAN2021:05:20:00,23.9,24.2,24.0,14.1,66,9.24,36.158,0,8.6,117,11.4,0,0.00,0.00,0.00,23.6534,24.6524
10min,FGNet,genola,42.05,27JAN2021:05:30:00,25.2,25.6,25.3,14.1,62,9.26,36.1544,0,8.7,114.4,10.5,0,0.00,0.00,0.00,24.0926,25.3202
10min,FGNet,genola,42.05,27JAN2021:05:40:00,25.9,26.1,25.8,14.1,61,9.22,36.131,0,7.4,120.9,9.1,0,0.00,0.00,0.00,24.5732,25.5884
10min,FGNet,genola,42.05,27JAN2021:05:50:00,26.0,26.2,25.9,14.1,60,9.23,36.1058,0,8.5,120.1,12.8,0,0.00,0.00,0.00,25.2914,25.997
10min,FGNet,genola,42.05,27JAN2021:06:00:00,25.9,26.1,26.0,14.1,60,9.23,36.104,0,8.8,118.3,11.6,0,0.00,0.00,0.00,24.8918,25.6082
10min,FGNet,genola,42.05,27JAN2021:06:10:00,25.9,26.2,26.1,14.3,61,9.25,36.0932,0,7.0,119.5,8.5,0,0.00,0.00,0.00,25.4894,26.1644